TimeCST,TemperatureF,Dew PointF,Humidity,Sea Level PressureIn,VisibilityMPH,Wind Direction,Wind SpeedMPH,Gust SpeedMPH,PrecipitationIn,Events,Conditions,WindDirDegrees,DateUTC
12:53 AM,54.0,48.9,83,30.09,10.0,North,10.4,20.7,N/A,,Clear,360,2012-01-28 06:53:00
1:53 AM,55.0,48.0,77,30.12,10.0,NNE,5.8,-,N/A,,Clear,30,2012-01-28 07:53:00
2:53 AM,55.9,42.1,60,30.14,10.0,NNE,10.4,-,N/A,,Clear,30,2012-01-28 08:53:00
3:53 AM,55.9,39.9,55,30.16,10.0,NNE,16.1,21.9,N/A,,Clear,20,2012-01-28 09:53:00
4:53 AM,54.0,39.0,57,30.18,10.0,NNE,12.7,26.5,N/A,,Clear,20,2012-01-28 10:53:00
5:53 AM,52.0,35.1,53,30.24,10.0,NNE,10.4,-,N/A,,Clear,30,2012-01-28 11:53:00
6:53 AM,50.0,33.1,52,30.30,10.0,NNE,12.7,21.9,N/A,,Clear,30,2012-01-28 12:53:00
7:53 AM,50.0,28.9,44,30.33,10.0,NE,15.0,20.7,N/A,,Clear,40,2012-01-28 13:53:00
8:53 AM,51.1,26.1,38,30.36,10.0,NNE,16.1,25.3,N/A,,Clear,20,2012-01-28 14:53:00
10:53 AM,55.9,23.0,28,30.40,10.0,NNE,15.0,25.3,N/A,,Clear,30,2012-01-28 16:53:00
11:53 AM,57.9,21.9,25,30.40,10.0,NE,17.3,25.3,N/A,,Clear,40,2012-01-28 17:53:00
12:53 PM,59.0,21.0,23,30.38,10.0,NE,13.8,27.6,N/A,,Clear,40,2012-01-28 18:53:00
1:53 PM,61.0,19.9,21,30.35,10.0,NE,13.8,20.7,N/A,,Clear,40,2012-01-28 19:53:00
2:53 PM,62.1,21.9,21,30.34,10.0,NE,11.5,-,N/A,,Clear,40,2012-01-28 20:53:00
3:53 PM,62.1,27.0,26,30.33,10.0,NE,10.4,19.6,N/A,,Clear,50,2012-01-28 21:53:00
4:53 PM,61.0,27.0,27,30.34,10.0,NE,10.4,-,N/A,,Clear,50,2012-01-28 22:53:00
5:53 PM,57.9,27.0,31,30.37,10.0,ENE,8.1,-,N/A,,Clear,70,2012-01-28 23:53:00
6:53 PM,55.0,30.0,38,30.39,10.0,ENE,8.1,-,N/A,,Clear,60,2012-01-29 00:53:00
7:53 PM,52.0,30.0,43,30.42,10.0,ENE,8.1,-,N/A,,Clear,60,2012-01-29 01:53:00
8:53 PM,50.0,30.0,46,30.43,10.0,ENE,4.6,-,N/A,,Clear,60,2012-01-29 02:53:00
9:53 PM,48.0,30.0,50,30.44,10.0,NE,4.6,-,N/A,,Clear,50,2012-01-29 03:53:00
10:53 PM,46.0,30.9,56,30.44,10.0,NNE,6.9,-,N/A,,Clear,20,2012-01-29 04:53:00